Hourly Data Report for March 16, 2012

All times are specified in Local Standard Time (LST). Add 1 hour to adjust for Daylight Saving Time where and when it is observed.

MIRAMICHI RCS
NEW BRUNSWICK

47°00'34.000" N
65°27'54.000" W
33.00 m
8100989
71744
ACQ

Download Data

Hourly Data (March 2012)
Hourly Data Report for March 16, 2012
TIME Temp Definition
°C
Dew Point Temp Definition
°C
Rel Hum Definition
%
Wind Dir Definition
10's deg

Wind Spd Definition
km/h
Visibility Definition
km
Stn Press Definition
kPa
Hmdx Definition


Wind Chill Definition


Weather Definition


00:00 -9.4 -10.7 90 31 2   102.37   -11 LegendNANA
01:00 -10.6 -12.1 89 35 4   102.31   -13 LegendNANA
02:00 -10.0 -11.3 90 31 6   102.27   -14 LegendNANA
03:00 -11.2 -12.7 89 31 4   102.24   -14 LegendNANA
04:00 -12.2 -13.8 88 29 4   102.20   -15 LegendNANA
05:00 -12.4 -14.0 88 29 4   102.18   -15 LegendNANA
06:00 -12.0 -13.3 90 28 6   102.18   -16 LegendNANA
07:00 -11.7 -13.3 88 27 2   102.18   -13 LegendNANA
08:00 -8.7 -10.8 85 27 6   102.16   -12 LegendNANA
09:00 -5.3 -8.4 79 21 4   102.12   -7 LegendNANA
10:00 -2.1 -6.3 73 20 4   102.03   -4 LegendNANA
11:00 1.2 -6.8 55 19 4   101.96     LegendNANA
12:00 2.0 -6.1 55 21 6   101.87     LegendNANA
13:00 3.8 -10.1 35 23 6   101.75     LegendNANA
14:00 5.0 -6.6 43 22 6   101.63     LegendNANA
15:00 4.3 -5.4 49 21 13   101.58     LegendNANA
16:00 4.4 -3.7 56 22 11   101.50     LegendNANA
17:00 4.1 -1.9 65 23 9   101.44     LegendNANA
18:00 3.4 -1.3 71 21 7   101.42     LegendNANA
19:00 2.1 0.3 88 25 9   101.51     LegendNANA
20:00 0.8 -0.2 93 24 6   101.48     LegendNANA
21:00 0.4 -0.4 94 21 4   101.46     LegendNANA
22:00 0.6 -0.1 95 24 4   101.45     LegendNANA
23:00 0.4 -0.3 95 27 4   101.46     LegendNANA

Notes on Data Quality.

Legend

  • E = Estimated
  • M = Missing
  • NA = Not Available
Date modified: